Back to catalog

KUIPER-00618

AliveCommunicationsLEO
NORAD 69294·PAYLOAD·🇺🇸 United States

Launched May 29, 2026 from Vandenberg Space Force Base

Loading…

Next Passes (next 24 hours)

TLE

FreshSource: CelesTrak SupGP

Epoch: Sep 14, 2026, 20:38 UTC

1 69294C 26118AD  26257.86030093  .00003250  00000+0  42559-3 0  2573
2 69294  51.9033 354.1397 0001861 169.9557 266.6595 14.79914165    10

Track KUIPER-00618 in real time with AllMySat

Download on the App Store